[[{"header":{"parameterUnit":"m.s-1","parameterCategory":1,"la1":30.2991,"la2":30.254,"lo1":-89.0895,"lo2":-89.0444,"dy":0.0017,"dx":0.0017,"nx":28,"ny":28,"refTime":"2025-01-10T09:00:00:Z","depth":0,"parameterNumber":2,"parameterNumberName":"U-component_of_WINDS"},"data":[0,0,0,0,0,0,0,0,0,0,0,0,0,0,0,0,0,0,0,0,0,0,0,0,0,0,0,0,0,0,0,0,0,0,0,0,0,0,0,0,0,0,0,0,0,0,0,0,0,0,0,0,0,0,0,0,0,0,1.3127,1.3127,0,1.3138,1.3138,1.3138,1.313,1.313,1.3129,1.3129,1.3139,1.314,1.3141,0,0,0,0,0,0,0,0,0,0,0,0,0,1.3098,1.3099,1.3127,1.3127,1.3127,1.3138,1.3138,1.3138,1.313,1.313,1.3129,1.3129,1.3139,1.314,1.3141,0,0,0,0,0,0,0,0,0,0,0,0,0,1.311,1.3099,1.3127,1.3124,1.3124,1.3138,1.3138,1.3138,1.313,1.313,1.3129,1.3129,1.3139,1.314,1.3141,1.3157,0,0,1.3144,1.3144,0,0,0,0,0,0,0,0,1.3109,1.3111,1.3125,1.3124,1.3124,1.3132,1.3132,1.3145,1.313,1.3128,1.3129,1.3128,1.3137,1.3138,1.3142,1.3158,1.3158,1.3144,1.3144,1.3145,1.3145,0,0,0,0,0,0,0,1.3108,1.311,1.3131,1.3125,1.3125,1.3123,1.3124,1.3134,1.3135,1.3128,1.3128,1.3129,1.3137,1.3141,1.3142,1.3158,1.3144,1.3145,1.3145,1.3145,1.3189,1.319,0,0,0,0,0,0,1.3108,1.311,1.3131,1.3131,1.3115,1.3124,1.3125,1.313,1.3135,1.3136,1.3129,1.3129,1.3139,1.3141,1.3142,1.3162,1.3145,1.3146,1.3146,1.3188,1.3189,1.319,0,0,0,0,0,0,1.3107,1.311,1.313,1.3121,1.3123,1.3125,1.3131,1.3131,1.3134,1.3136,1.3137,1.3133,1.3139,1.3141,1.3154,1.3162,1.3146,1.3147,1.3188,1.3189,1.319,1.3202,0,0,0,0,0,0,1.3107,1.311,1.3116,1.3121,1.3124,1.3142,1.3131,1.3131,1.3136,1.3135,1.314,1.314,1.3139,1.3152,1.3155,1.3163,1.3147,1.3187,1.3188,1.3189,1.32,1.3203,1.3205,0,0,0,0,0,1.3106,1.3118,1.3116,1.3119,1.3131,1.3142,1.3144,1.3143,1.3137,1.3143,1.3145,1.314,1.3161,1.3154,1.3156,1.3165,1.3186,1.3188,1.3189,1.3199,1.3202,1.3205,0,0,0,0,0,0,1.3114,1.3119,1.3117,1.3131,1.3137,1.3141,1.3149,1.3146,1.3152,1.3151,1.3149,1.315,1.3164,1.3166,1.3158,1.3182,1.3173,1.3175,1.318,1.3183,1.3185,1.3184,1.3148,0,0,0,0,0,1.3117,1.3126,1.313,1.3143,1.3146,1.3147,1.3151,1.315,1.3155,1.3157,1.316,1.3165,1.3173,1.3178,1.3185,1.3201,1.3202,1.3208,1.3211,1.3212,1.3214,1.3223,1.3226,1.3194,1.3194,1.3194,0,0,1.3125,1.3129,1.3134,1.3145,1.3148,1.3157,1.3149,1.3158,1.3165,1.3159,1.3171,1.3173,1.3179,1.3193,1.32,1.3195,1.3223,1.3214,1.3216,1.3216,1.3225,1.3228,1.323,1.3195,1.3195,1.3195,0,0,1.3143,1.3147,1.3158,1.3162,1.3169,1.3169,1.3172,1.3177,1.3179,1.3191,1.3187,1.3195,1.3209,1.3213,1.3217,1.3238,1.3234,1.324,1.3251,1.326,1.3263,1.3265,1.3273,1.3275,1.3242,1.3242,1.3242,0,1.3151,1.3164,1.3164,1.3174,1.3179,1.3175,1.3186,1.3191,1.3199,1.3202,1.3197,1.3215,1.3218,1.3234,1.3239,1.3242,1.3246,1.3239,1.3263,1.3265,1.3267,1.3274,1.3277,1.3243,1.3243,1.3243,1.3242,0,1.3174,1.3184,1.3192,1.3201,1.3207,1.3218,1.3219,1.3225,1.3224,1.3225,1.3239,1.3243,1.3251,1.3255,1.3253,1.3271,1.3268,1.3263,1.3254,1.3271,1.3277,1.328,1.3244,1.3243,1.3243,1.3243,0,0,1.3197,1.3206,1.3209,1.3213,1.3221,1.3228,1.3239,1.3248,1.3253,1.3259,1.3268,1.3281,1.3276,1.3281,1.328,1.3288,1.3305,1.3282,1.3282,1.3286,1.3324,1.3328,1.3331,1.3302,1.3303,1.3303,1.3324,0,1.3215,1.3234,1.3235,1.3253,1.3262,1.3258,1.3268,1.3274,1.3276,1.3284,1.3286,1.3294,1.3288,1.3291,1.3299,1.3301,1.3312,1.3299,1.331,1.3311,1.3309,1.3334,1.3338,1.3357,1.3326,1.3327,1.3327,0,1.3239,1.3246,1.3265,1.3272,1.3276,1.3285,1.3293,1.3301,1.3307,1.3308,1.3314,1.3312,1.3323,1.3315,1.333,1.3322,1.3326,1.3328,1.3329,1.333,1.332,1.3335,1.3363,1.3365,1.3331,1.3331,1.3331,0,1.3253,1.3268,1.3282,1.3285,1.3294,1.33,1.3304,1.331,1.3315,1.3323,1.3326,1.3335,1.3339,1.3346,1.3347,1.334,1.3363,1.3354,1.3364,1.3364,1.3368,1.3367,1.3396,1.3372,1.3371,1.3371,1.3371,0,1.3273,1.3285,1.3288,1.3296,1.331,1.331,1.3323,1.3327,1.3332,1.3341,1.3339,1.3347,1.3347,1.3356,1.3357,1.337,1.3372,1.3373,1.3373,1.3373,1.3372,1.3375,1.3374,1.3372,1.3372,1.3372,1.3372,0,1.3291,1.3294,1.3308,1.3316,1.3318,1.3327,1.3333,1.3341,1.3343,1.3354,1.3357,1.3361,1.3371,1.3372,1.3384,1.3384,1.34,1.3398,1.3398,1.3397,1.3407,1.3406,1.3438,1.3442,1.3415,1.3416,1.3416,0,1.3303,1.3312,1.3321,1.3327,1.3331,1.3341,1.3347,1.3348,1.3355,1.3363,1.337,1.338,1.3388,1.3404,1.3408,1.3417,1.3415,1.3426,1.3417,1.3417,1.3415,1.3415,1.3416,1.3428,1.3428,1.3428,1.3428,0,1.3325,1.3327,1.3335,1.3345,1.3353,1.336,1.3367,1.3373,1.3375,1.3382,1.3393,1.3399,1.3411,1.3421,1.3431,1.3434,1.3432,1.3432,1.3434,1.3434,1.3433,1.3434,1.3402,1.3431,1.343,1.343,1.343,1.343,1.3341,1.3349,1.3356,1.3367,1.3373,1.338,1.3388,1.3392,1.3401,1.3411,1.3411,1.3423,1.343,1.3442,1.3447,1.3456,1.3452,1.3456,1.3457,1.3458,1.3459,1.3432,1.3457,1.3457,1.3457,1.3457,1.3457,0,1.3362,1.3367,1.3377,1.3388,1.3396,1.3394,1.3402,1.3409,1.3419,1.3426,1.3435,1.3447,1.3457,1.3462,1.3471,1.3478,1.3477,1.348,1.348,1.348,1.3461,1.3458,1.3481,1.3481,1.3481,1.3481,1.3481,1.3481,1.3374,1.3388,1.3391,1.3408,1.3413,1.3424,1.3429,1.3436,1.3442,1.3456,1.3464,1.3468,1.3474,1.3484,1.3493,1.3494,1.3498,1.3502,1.3502,1.3484,1.3482,1.3479,1.3476,1.3503,1.3503,1.3521,1.3521,1.3521]},{"header":{"parameterUnit":"m.s-1","parameterCategory":1,"la1":30.2991,"la2":30.254,"lo1":-89.0895,"lo2":-89.0444,"dy":0.0017,"dx":0.0017,"nx":28,"ny":28,"refTime":"2025-01-10T09:00:00:Z","depth":0,"parameterNumber":3,"parameterNumberName":"V-component_of_WINDS"},"data":[0,0,0,0,0,0,0,0,0,0,0,0,0,0,0,0,0,0,0,0,0,0,0,0,0,0,0,0,0,0,0,0,0,0,0,0,0,0,0,0,0,0,0,0,0,0,0,0,0,0,0,0,0,0,0,0,0,0,-2.5181,-2.5182,0,-2.5248,-2.5249,-2.525,-2.5263,-2.5263,-2.5262,-2.5262,-2.5328,-2.533,-2.5332,0,0,0,0,0,0,0,0,0,0,0,0,0,-2.5063,-2.5065,-2.5181,-2.5182,-2.5183,-2.5248,-2.5249,-2.525,-2.5263,-2.5263,-2.5262,-2.5261,-2.5327,-2.533,-2.5332,0,0,0,0,0,0,0,0,0,0,0,0,0,-2.5121,-2.5066,-2.5181,-2.5197,-2.52,-2.5248,-2.5249,-2.525,-2.5263,-2.5263,-2.5262,-2.5261,-2.5326,-2.5329,-2.5333,-2.5369,0,0,-2.5343,-2.5344,0,0,0,0,0,0,0,0,-2.5117,-2.5125,-2.5194,-2.5196,-2.5199,-2.5247,-2.5232,-2.529,-2.5264,-2.5239,-2.5262,-2.5261,-2.5301,-2.5306,-2.5321,-2.5372,-2.5375,-2.5343,-2.5345,-2.5347,-2.5348,0,0,0,0,0,0,0,-2.5113,-2.5122,-2.5208,-2.5195,-2.5198,-2.5201,-2.5208,-2.5243,-2.5273,-2.5241,-2.5242,-2.525,-2.5302,-2.5317,-2.5322,-2.5375,-2.5343,-2.5346,-2.5348,-2.5349,-2.5461,-2.5462,0,0,0,0,0,0,-2.5107,-2.5119,-2.5205,-2.521,-2.5156,-2.5204,-2.5212,-2.5232,-2.5273,-2.5279,-2.5251,-2.5251,-2.5312,-2.5318,-2.5325,-2.5371,-2.5347,-2.535,-2.5352,-2.546,-2.5461,-2.5462,0,0,0,0,0,0,-2.5104,-2.5114,-2.5203,-2.5165,-2.5176,-2.5207,-2.5229,-2.5234,-2.5249,-2.528,-2.5286,-2.5261,-2.5312,-2.532,-2.5358,-2.5373,-2.5351,-2.5354,-2.5459,-2.5461,-2.5462,-2.5463,0,0,0,0,0,0,-2.5101,-2.5113,-2.5128,-2.5165,-2.5178,-2.5236,-2.523,-2.5236,-2.5255,-2.5255,-2.5291,-2.5296,-2.5312,-2.5353,-2.5362,-2.5378,-2.5357,-2.5458,-2.546,-2.5461,-2.5462,-2.5464,-2.5466,0,0,0,0,0,-2.5097,-2.5124,-2.5128,-2.5139,-2.5197,-2.5236,-2.5244,-2.5262,-2.5256,-2.5271,-2.5291,-2.5295,-2.537,-2.5357,-2.5366,-2.5384,-2.5457,-2.5459,-2.5461,-2.5461,-2.5464,-2.5466,0,0,0,0,0,0,-2.5087,-2.5129,-2.5134,-2.5175,-2.5202,-2.5239,-2.5257,-2.5264,-2.5293,-2.5292,-2.5312,-2.532,-2.5357,-2.5374,-2.5359,-2.5422,-2.5413,-2.5417,-2.5409,-2.5413,-2.5415,-2.541,-2.536,0,0,0,0,0,-2.509,-2.5119,-2.5154,-2.5187,-2.52,-2.5227,-2.5244,-2.5256,-2.5285,-2.5296,-2.5319,-2.5346,-2.5376,-2.5395,-2.5424,-2.5464,-2.5472,-2.5481,-2.5483,-2.5485,-2.5488,-2.5512,-2.5517,-2.547,-2.5469,-2.5469,0,0,-2.5095,-2.5122,-2.5139,-2.5186,-2.5208,-2.5238,-2.5236,-2.5267,-2.529,-2.53,-2.5339,-2.5357,-2.5388,-2.5428,-2.5446,-2.5443,-2.5503,-2.5487,-2.5489,-2.5491,-2.5515,-2.5519,-2.5523,-2.5471,-2.5471,-2.547,0,0,-2.5121,-2.5144,-2.5175,-2.5197,-2.5232,-2.525,-2.5257,-2.5293,-2.5306,-2.5344,-2.5354,-2.538,-2.5431,-2.5453,-2.5471,-2.5507,-2.5513,-2.5516,-2.5529,-2.5552,-2.5555,-2.5559,-2.5573,-2.5578,-2.5519,-2.5519,-2.5519,0,-2.5123,-2.517,-2.5189,-2.5221,-2.5241,-2.5254,-2.5285,-2.5306,-2.5347,-2.5361,-2.5357,-2.5422,-2.5444,-2.549,-2.5499,-2.5513,-2.5522,-2.5512,-2.5553,-2.5557,-2.556,-2.5574,-2.5579,-2.552,-2.552,-2.552,-2.552,0,-2.5172,-2.5203,-2.5224,-2.5266,-2.5288,-2.5319,-2.5343,-2.5364,-2.5374,-2.5392,-2.5432,-2.5459,-2.5494,-2.5506,-2.5515,-2.5553,-2.555,-2.5549,-2.5542,-2.5565,-2.5578,-2.5584,-2.552,-2.552,-2.552,-2.552,0,0,-2.5193,-2.5246,-2.5253,-2.5273,-2.5313,-2.5338,-2.5369,-2.5406,-2.5423,-2.5452,-2.5479,-2.5523,-2.5523,-2.5543,-2.5555,-2.5575,-2.5604,-2.5572,-2.5573,-2.5578,-2.565,-2.5651,-2.5656,-2.5607,-2.5608,-2.5609,-2.5647,0,-2.5224,-2.5283,-2.5302,-2.5351,-2.5381,-2.5394,-2.5422,-2.5449,-2.5467,-2.5495,-2.5514,-2.5545,-2.5542,-2.5555,-2.5575,-2.5596,-2.5619,-2.5593,-2.5634,-2.5635,-2.5626,-2.5663,-2.5664,-2.5699,-2.5652,-2.5653,-2.5654,0,-2.5269,-2.53,-2.5352,-2.539,-2.5403,-2.5428,-2.5463,-2.549,-2.5521,-2.5533,-2.5557,-2.5567,-2.5601,-2.5591,-2.5638,-2.5621,-2.5638,-2.5651,-2.5653,-2.5658,-2.5646,-2.567,-2.571,-2.5716,-2.5662,-2.5661,-2.5661,0,-2.5281,-2.5336,-2.5374,-2.5391,-2.5435,-2.5453,-2.5472,-2.5502,-2.5523,-2.5554,-2.5568,-2.5601,-2.562,-2.5645,-2.5665,-2.5655,-2.5711,-2.5702,-2.5722,-2.5721,-2.5733,-2.5733,-2.5778,-2.5743,-2.5743,-2.5743,-2.5742,0,-2.5315,-2.5346,-2.5381,-2.5405,-2.5441,-2.5462,-2.5497,-2.5517,-2.5544,-2.5572,-2.5584,-2.561,-2.5634,-2.5663,-2.5678,-2.5716,-2.5724,-2.5734,-2.5738,-2.5734,-2.5733,-2.5746,-2.5745,-2.5744,-2.5744,-2.5743,-2.5743,0,-2.5334,-2.5358,-2.5402,-2.5441,-2.5451,-2.5477,-2.551,-2.5533,-2.5552,-2.5587,-2.5597,-2.5626,-2.5661,-2.5683,-2.5726,-2.5737,-2.5779,-2.5781,-2.5769,-2.5771,-2.579,-2.5788,-2.5846,-2.5855,-2.5813,-2.5813,-2.5814,0,-2.5355,-2.538,-2.5422,-2.5443,-2.5462,-2.5494,-2.5516,-2.5539,-2.5561,-2.5599,-2.5619,-2.5655,-2.5685,-2.574,-2.5764,-2.5798,-2.5802,-2.582,-2.5807,-2.5803,-2.5804,-2.5803,-2.5806,-2.5823,-2.5823,-2.5823,-2.5824,0,-2.5389,-2.5401,-2.5432,-2.5469,-2.5495,-2.5525,-2.5554,-2.5569,-2.5597,-2.5621,-2.5658,-2.5681,-2.5727,-2.5763,-2.5799,-2.5818,-2.5826,-2.5827,-2.5834,-2.5831,-2.5823,-2.5829,-2.5776,-2.5826,-2.5826,-2.5826,-2.5826,-2.5825,-2.5411,-2.5435,-2.5469,-2.5504,-2.5529,-2.5556,-2.5581,-2.5604,-2.5635,-2.5675,-2.5686,-2.5725,-2.5756,-2.5806,-2.5826,-2.5856,-2.5854,-2.5863,-2.5866,-2.5868,-2.5869,-2.5817,-2.5863,-2.5863,-2.5863,-2.5863,-2.5863,0,-2.5447,-2.547,-2.5503,-2.5544,-2.5572,-2.5578,-2.5611,-2.5634,-2.5668,-2.5698,-2.5728,-2.577,-2.5805,-2.5833,-2.587,-2.5889,-2.5893,-2.5897,-2.5897,-2.5901,-2.5869,-2.586,-2.5893,-2.5893,-2.5893,-2.5893,-2.5893,-2.5893,-2.547,-2.551,-2.5526,-2.5579,-2.5602,-2.5641,-2.5659,-2.5685,-2.5709,-2.5756,-2.5786,-2.5805,-2.5834,-2.5873,-2.5905,-2.5913,-2.5926,-2.593,-2.5938,-2.5907,-2.5903,-2.59,-2.5892,-2.5932,-2.5932,-2.5968,-2.5969,-2.5969]}]]